TIANWANG 1B (TW-1B)
1 40927U 15051C   20005.38075409  .00010595  00000-0  14131-3 0  9990
2 40927  97.1133  55.4819 0007377  11.2979  43.3313 15.58253014241225
TIANWANG 1A (TW-1A)
1 40928U 15051D   20005.57694541  .00002031  00000-0  49875-4 0  9996
2 40928  97.1271  37.3274 0012490  67.2932  83.8993 15.41757144240110
LAPAN A2
1 40931U 15052B   20002.58753715  .00000638  00000-0 -24146-6 0  9996
2 40931   5.9928  85.5229 0013528  76.7647 283.7111 14.76622055230555
LQSAT
1 40958U 15057A   20005.14810524  .00000008  00000-0  89493-5 0  9992
2 40958  97.8765  73.6774 0017185 321.3208  38.6768 14.73102711228316
CHUBUSAT 2
1 41338U 16012B   20004.23412415  .00000260  00000-0  13402-4 0  9999
2 41338  31.0042 316.5892 0013816 279.3759  80.5314 15.00226714212909
CHUBUSAT 3
1 41339U 16012C   20005.51117140  .00000259  00000-0  13311-4 0  9996
2 41339  31.0136 306.3106 0013754 300.5998  59.3279 15.00396938213093
OUFTI-1
1 41458U 16025C   20004.83943626 +.00000752 +00000-0 +41798-4 0  9990
2 41458 098.0994 106.8902 0165828 044.2783 317.1571 15.06355728202693
E-STAR-2
1 41459U 16025D   20005.37086456  .00000117  00000-0  10319-4 0  9990
2 41459  98.0986 106.9873 0167357  44.0761 317.3661 15.05953689202743
AAUSAT 4
1 41460U 16025E   20005.54850383  .00001577  00000-0  81351-4 0  9994
2 41460  98.0972 108.9607 0156362  34.2882 326.8304 15.08058149202936
NUSAT 1
1 41557U 16033B   20005.51239211  .00000976  00000-0  38847-4 0  9992
2 41557  97.4111  96.8208 0012368 312.6842  47.3355 15.27639612200748
BEESAT 4
1 41619U 16040W   20005.12507904  .00001046  00000-0  46577-4 0  9991
2 41619  97.3437  68.3772 0012267  45.2557 314.9676 15.23585214184370
PRATHAM
1 41783U 16059A   20004.71740741 +.00000017 +00000-0 +12392-4 0  9990
2 41783 098.0422 064.5966 0034795 114.1729 246.3117 14.63029879174790
ALSAT 1N
1 41789U 16059G   20005.42332978  .00000068  00000-0  21781-4 0  9992
2 41789  98.0450  67.7266 0029661 100.8532 259.6013 14.64288085175021
NAYIF 1
1 42017U 17008BX  20005.18619648  .00001208  00000-0  49739-4 0  9997
2 42017  97.3817  75.0101 0006460 167.8911 192.2484 15.26029758160499
MAX VALIER SAT
1 42778U 17036P   20005.42482181  .00000760  00000-0  35910-4 0  9997
2 42778  97.3296  63.4008 0010997 234.3834 125.6379 15.22333237140773
